{"data":{"norad_id":65394,"epoch":"2026-05-25T05:15:40.640832Z","epoch_age_seconds":59267,"freshness":"FRESH","line1":"1 65394U 25191R   26145.21922038  .00001943  00000+0  13864-3 0  9991","line2":"2 65394  97.4486  16.5584 0002726  72.1910 287.9614 15.05654520 41783","mean_motion":15.0565452,"eccentricity":0.0002726,"inclination_deg":97.4486,"raan_deg":16.5584,"arg_perigee_deg":72.191,"mean_anomaly_deg":287.9614,"bstar":0.00013864,"rev_number":4178,"period_min":95.639469803471,"perigee_km":547.60881631462,"apogee_km":551.38576252921,"semimajor_km":6927.6342894219,"source":"CELESTRAK","updated_at":"2026-05-25T13:38:20.775167Z"}}